| time (UTC) | temp F | wind direction | speed MPH | gust MPH | rain 1hr in | rain 24hr in | rain mn in | humidity % | barometer mb |
| 20260506215012 | 72 | 298 | 5.0 | 10.0 | 0.00 | 0.00 | 0.00 | 63 | 1018.0 |
| 20260506214528 | 71 | 276 | 0.0 | 6.0 | 0.00 | 0.00 | 0.00 | 60 | 1018.0 |
| 20260506214012 | 71 | 28 | 2.0 | 8.0 | 0.00 | 0.00 | 0.00 | 64 | 1018.2 |
| 20260506213511 | 72 | 351 | 2.0 | 8.0 | 0.00 | 0.00 | 0.00 | 63 | 1018.1 |
| 20260506213032 | 72 | 0 | 1.0 | 9.0 | 0.00 | 0.00 | 0.00 | 61 | 1018.3 |
| 20260506212514 | 71 | 24 | 3.0 | 9.0 | 0.00 | 0.00 | 0.00 | 62 | 1018.3 |
| 20260506212012 | 71 | 322 | 3.0 | 8.0 | 0.00 | 0.00 | 0.00 | 66 | 1018.4 |
| 20260506211532 | 70 | 323 | 1.0 | 8.0 | 0.00 | 0.00 | 0.00 | 65 | 1018.4 |
| 20260506211012 | 69 | 332 | 3.0 | 6.0 | 0.00 | 0.00 | 0.00 | 64 | 1018.5 |
| 20260506210513 | 70 | 24 | 2.0 | 8.0 | 0.00 | 0.00 | 0.00 | 64 | 1018.6 |
| 20260506210032 | 70 | 355 | 3.0 | 8.0 | 0.00 | 0.00 | 0.00 | 65 | 1018.6 |
| 20260506205513 | 70 | 355 | 3.0 | 9.0 | 0.00 | 0.00 | 0.00 | 63 | 1018.6 |
| 20260506205011 | 72 | 71 | 2.0 | 9.0 | 0.00 | 0.00 | 0.00 | 61 | 1018.7 |
| 20260506204529 | 74 | 0 | 1.0 | 9.0 | 0.00 | 0.00 | 0.00 | 58 | 1018.8 |
| 20260506204017 | 73 | 327 | 5.0 | 9.0 | 0.00 | 0.00 | 0.00 | 62 | 1018.8 |
| 20260506203512 | 71 | 317 | 3.0 | 9.0 | 0.00 | 0.00 | 0.00 | 63 | 1019.0 |
| 20260506203029 | 70 | 24 | 3.0 | 9.0 | 0.00 | 0.00 | 0.00 | 66 | 1019.1 |
| 20260506202513 | 70 | 30 | 3.0 | 9.0 | 0.00 | 0.00 | 0.00 | 62 | 1019.2 |
| 20260506202017 | 72 | 294 | 2.0 | 8.0 | 0.00 | 0.00 | 0.00 | 63 | 1019.2 |
| 20260506201530 | 72 | 317 | 3.0 | 8.0 | 0.00 | 0.00 | 0.00 | 65 | 1019.3 |
| 20260506201013 | 70 | 92 | 3.0 | 7.0 | 0.00 | 0.00 | 0.00 | 66 | 1019.3 |
| 20260506200512 | 69 | 355 | 1.0 | 8.0 | 0.00 | 0.00 | 0.00 | 69 | 1019.3 |
| 20260506200027 | 68 | 18 | 2.0 | 11.0 | 0.00 | 0.00 | 0.00 | 66 | 1019.4 |
| 20260506195512 | 70 | 9 | 3.0 | 11.0 | 0.00 | 0.00 | 0.00 | 66 | 1019.4 |
| 20260506195011 | 69 | 337 | 2.0 | 8.0 | 0.00 | 0.00 | 0.00 | 70 | 1019.4 |
| 20260506194530 | 68 | 319 | 3.0 | 8.0 | 0.00 | 0.00 | 0.00 | 65 | 1019.5 |
| 20260506194013 | 69 | 268 | 2.0 | 8.0 | 0.00 | 0.00 | 0.00 | 66 | 1019.5 |
| 20260506193513 | 69 | 302 | 2.0 | 7.0 | 0.00 | 0.00 | 0.00 | 70 | 1019.6 |
| 20260506193030 | 67 | 336 | 1.0 | 6.0 | 0.00 | 0.00 | 0.00 | 70 | 1019.7 |
| 20260506192513 | 68 | 53 | 2.0 | 6.0 | 0.00 | 0.00 | 0.00 | 66 | 1019.7 |
| 20260506192013 | 69 | 341 | 3.0 | 6.0 | 0.00 | 0.00 | 0.00 | 68 | 1019.7 |
| 20260506191528 | 68 | 278 | 4.0 | 7.0 | 0.00 | 0.00 | 0.00 | 70 | 1019.7 |
| 20260506191014 | 68 | 16 | 1.0 | 7.0 | 0.00 | 0.00 | 0.00 | 68 | 1019.9 |
| 20260506190517 | 69 | 360 | 2.0 | 7.0 | 0.00 | 0.00 | 0.00 | 67 | 1019.9 |
| 20260506190028 | 69 | 43 | 2.0 | 7.0 | 0.00 | 0.00 | 0.00 | 67 | 1019.8 |
| 20260506185512 | 68 | 337 | 2.0 | 5.0 | 0.00 | 0.00 | 0.00 | 68 | 1019.9 |
| 20260506185013 | 69 | 302 | 2.0 | 7.0 | 0.00 | 0.00 | 0.00 | 69 | 1019.8 |
| 20260506184529 | 68 | 291 | 2.0 | 7.0 | 0.00 | 0.00 | 0.00 | 68 | 1019.8 |
| 20260506184020 | 68 | 310 | 3.0 | 7.0 | 0.00 | 0.00 | 0.00 | 74 | 1020.0 |
| 20260506183514 | 68 | 82 | 2.0 | 7.0 | 0.00 | 0.00 | 0.00 | 70 | 1020.0 |
| 20260506183028 | 67 | 15 | 2.0 | 7.0 | 0.00 | 0.00 | 0.00 | 71 | 1020.1 |
| 20260506182513 | 68 | 285 | 4.0 | 7.0 | 0.00 | 0.00 | 0.00 | 70 | 1020.1 |
| 20260506182014 | 67 | 279 | 3.0 | 7.0 | 0.00 | 0.00 | 0.00 | 75 | 1020.2 |
| 20260506181530 | 67 | 317 | 2.0 | 7.0 | 0.00 | 0.00 | 0.00 | 75 | 1020.2 |
| 20260506181013 | 66 | 246 | 2.0 | 7.0 | 0.00 | 0.00 | 0.00 | 72 | 1020.1 |
| 20260506180513 | 66 | 0 | 1.0 | 6.0 | 0.00 | 0.00 | 0.00 | 72 | 1020.2 |
| 20260506180030 | 65 | 287 | 2.0 | 6.0 | 0.00 | 0.00 | 0.00 | 77 | 1020.2 |
| 20260506175515 | 65 | 25 | 2.0 | 6.0 | 0.00 | 0.00 | 0.00 | 74 | 1020.1 |
| 20260506175017 | 64 | 315 | 1.0 | 6.0 | 0.00 | 0.00 | 0.00 | 76 | 1020.2 |
| 20260506174527 | 64 | 0 | 1.0 | 4.0 | 0.00 | 0.00 | 0.00 | 77 | 1020.3 |
| 20260506174012 | 64 | 288 | 3.0 | 4.0 | 0.00 | 0.00 | 0.00 | 78 | 1020.2 |
| 20260506173514 | 64 | 0 | 0.0 | 4.0 | 0.00 | 0.00 | 0.00 | 74 | 1020.2 |
| 20260506173033 | 64 | 292 | 1.0 | 5.0 | 0.00 | 0.00 | 0.00 | 77 | 1020.3 |
| 20260506172512 | 64 | 248 | 1.0 | 7.0 | 0.00 | 0.00 | 0.00 | 78 | 1020.2 |
| 20260506172013 | 63 | 294 | 3.0 | 7.0 | 0.00 | 0.00 | 0.00 | 79 | 1020.2 |
| 20260506171530 | 63 | 231 | 4.0 | 7.0 | 0.00 | 0.00 | 0.00 | 80 | 1020.2 |
| 20260506171012 | 62 | 279 | 2.0 | 4.0 | 0.00 | 0.00 | 0.00 | 79 | 1020.2 |
| 20260506170512 | 62 | 0 | 1.0 | 4.0 | 0.00 | 0.00 | 0.00 | 79 | 1020.2 |
| 20260506170028 | 62 | 300 | 1.0 | 4.0 | 0.00 | 0.00 | 0.00 | 77 | 1020.3 |
| 20260506165514 | 62 | 285 | 2.0 | 6.0 | 0.00 | 0.00 | 0.00 | 79 | 1020.3 |
| 20260506165014 | 61 | 0 | 2.0 | 7.0 | 0.00 | 0.00 | 0.00 | 79 | 1020.3 |
| 20260506164528 | 61 | 276 | 3.0 | 7.0 | 0.00 | 0.00 | 0.00 | 79 | 1020.3 |
| 20260506164011 | 61 | 275 | 2.0 | 4.0 | 0.00 | 0.00 | 0.00 | 80 | 1020.3 |
| 20260506163511 | 61 | 254 | 1.0 | 5.0 | 0.00 | 0.00 | 0.00 | 80 | 1020.2 |
| 20260506163032 | 60 | 273 | 3.0 | 5.0 | 0.00 | 0.00 | 0.00 | 81 | 1020.2 |
| 20260506162513 | 60 | 190 | 3.0 | 5.0 | 0.00 | 0.00 | 0.00 | 81 | 1020.2 |
| 20260506162016 | 60 | 223 | 1.0 | 4.0 | 0.00 | 0.00 | 0.00 | 83 | 1020.2 |
| 20260506161534 | 60 | 216 | 1.0 | 4.0 | 0.00 | 0.00 | 0.00 | 81 | 1020.2 |
| 20260506161013 | 59 | 211 | 2.0 | 4.0 | 0.00 | 0.00 | 0.00 | 81 | 1020.2 |
| 20260506160517 | 59 | 241 | 2.0 | 4.0 | 0.00 | 0.00 | 0.00 | 81 | 1020.2 |
| 20260506160031 | 59 | 273 | 2.0 | 4.0 | 0.00 | 0.00 | 0.00 | 81 | 1020.3 |
| 20260506155514 | 59 | 254 | 2.0 | 4.0 | 0.00 | 0.00 | 0.00 | 81 | 1020.2 |
| 20260506155012 | 59 | 246 | 3.0 | 4.0 | 0.00 | 0.00 | 0.00 | 81 | 1020.1 |
| 20260506154532 | 59 | 240 | 1.0 | 4.0 | 0.00 | 0.00 | 0.00 | 82 | 1020.2 |
| 20260506154013 | 59 | 267 | 2.0 | 4.0 | 0.00 | 0.00 | 0.00 | 82 | 1020.2 |
| 20260506153511 | 58 | 277 | 2.0 | 6.0 | 0.00 | 0.00 | 0.00 | 82 | 1020.1 |
| 20260506153028 | 58 | 252 | 3.0 | 6.0 | 0.00 | 0.00 | 0.00 | 82 | 1020.2 |
| 20260506152512 | 58 | 210 | 3.0 | 5.0 | 0.00 | 0.00 | 0.00 | 82 | 1020.1 |
| 20260506152013 | 58 | 226 | 3.0 | 5.0 | 0.00 | 0.00 | 0.00 | 83 | 1020.1 |
| 20260506151530 | 58 | 180 | 2.0 | 5.0 | 0.00 | 0.00 | 0.00 | 83 | 1020.1 |
| 20260506151015 | 58 | 215 | 2.0 | 5.0 | 0.00 | 0.00 | 0.00 | 83 | 1020.1 |
| 20260506150512 | 58 | 219 | 2.0 | 5.0 | 0.00 | 0.00 | 0.00 | 84 | 1020.1 |
| 20260506150029 | 58 | 202 | 2.0 | 5.0 | 0.00 | 0.00 | 0.00 | 84 | 1020.1 |
| 20260506145510 | 58 | 217 | 2.0 | 4.0 | 0.00 | 0.00 | 0.00 | 85 | 1020.0 |
| 20260506145013 | 57 | 214 | 1.0 | 3.0 | 0.00 | 0.00 | 0.00 | 85 | 1020.0 |
| 20260506144529 | 57 | 190 | 1.0 | 3.0 | 0.00 | 0.00 | 0.00 | 85 | 1020.1 |
| 20260506144012 | 57 | 180 | 1.0 | 3.0 | 0.00 | 0.00 | 0.00 | 85 | 1020.1 |
| 20260506143513 | 57 | 188 | 1.0 | 3.0 | 0.00 | 0.00 | 0.00 | 85 | 1020.0 |
| 20260506143030 | 57 | 178 | 2.0 | 3.0 | 0.00 | 0.00 | 0.00 | 86 | 1019.9 |
| 20260506142513 | 56 | 0 | 0.0 | 3.0 | 0.00 | 0.00 | 0.00 | 86 | 1019.9 |
| 20260506142010 | 56 | 184 | 2.0 | 3.0 | 0.00 | 0.00 | 0.00 | 86 | 1019.9 |
| 20260506141534 | 56 | 0 | 0.0 | 4.0 | 0.00 | 0.00 | 0.00 | 87 | 1019.8 |
| 20260506141012 | 56 | 0 | 0.0 | 4.0 | 0.00 | 0.00 | 0.00 | 87 | 1019.8 |
| 20260506140513 | 56 | 171 | 0.0 | 3.0 | 0.00 | 0.00 | 0.00 | 87 | 1019.8 |
| 20260506140028 | 56 | 0 | 0.0 | 0.0 | 0.00 | 0.00 | 0.00 | 87 | 1019.7 |
| 20260506135512 | 56 | 0 | 0.0 | 0.0 | 0.00 | 0.00 | 0.00 | 87 | 1019.6 |
| 20260506135017 | 56 | 0 | 0.0 | 0.0 | 0.00 | 0.00 | 0.00 | 87 | 1019.6 |
| 20260506134527 | 56 | 0 | 0.0 | 1.0 | 0.00 | 0.00 | 0.00 | 87 | 1019.5 |
| 20260506134012 | 56 | 0 | 0.0 | 1.0 | 0.00 | 0.00 | 0.00 | 87 | 1019.6 |
| 20260506133512 | 56 | 0 | 0.0 | 1.0 | 0.00 | 0.00 | 0.00 | 87 | 1019.5 |
| 20260506133030 | 56 | 0 | 0.0 | 0.0 | 0.00 | 0.00 | 0.00 | 87 | 1019.5 |
| 20260506132514 | 56 | 0 | 0.0 | 0.0 | 0.00 | 0.00 | 0.00 | 87 | 1019.6 |
| 20260506132013 | 56 | 0 | 0.0 | 0.0 | 0.00 | 0.00 | 0.00 | 86 | 1019.5 |
| 20260506131528 | 56 | 0 | 0.0 | 0.0 | 0.00 | 0.00 | 0.00 | 86 | 1019.4 |
| 20260506131013 | 56 | 0 | 0.0 | 1.0 | 0.00 | 0.00 | 0.00 | 86 | 1019.5 |
| 20260506130514 | 56 | 0 | 0.0 | 1.0 | 0.00 | 0.00 | 0.00 | 86 | 1019.5 |
| 20260506130028 | 56 | 0 | 0.0 | 1.0 | 0.00 | 0.00 | 0.00 | 86 | 1019.4 |
| 20260506125513 | 56 | 0 | 0.0 | 2.0 | 0.00 | 0.00 | 0.00 | 86 | 1019.3 |
| 20260506125012 | 56 | 0 | 0.0 | 3.0 | 0.00 | 0.00 | 0.00 | 86 | 1019.3 |
| 20260506124529 | 56 | 191 | 0.0 | 4.0 | 0.00 | 0.00 | 0.00 | 86 | 1019.3 |
| 20260506124013 | 56 | 191 | 1.0 | 4.0 | 0.00 | 0.00 | 0.00 | 86 | 1019.3 |
| 20260506123515 | 56 | 191 | 1.0 | 3.0 | 0.00 | 0.00 | 0.00 | 86 | 1019.2 |
| 20260506123029 | 56 | 0 | 0.0 | 0.0 | 0.00 | 0.00 | 0.00 | 86 | 1019.2 |
| 20260506122513 | 56 | 0 | 0.0 | 0.0 | 0.00 | 0.00 | 0.00 | 85 | 1019.2 |
| 20260506122018 | 56 | 0 | 0.0 | 1.0 | 0.00 | 0.00 | 0.00 | 85 | 1019.2 |
| 20260506121529 | 56 | 0 | 0.0 | 1.0 | 0.00 | 0.00 | 0.00 | 85 | 1019.2 |
| 20260506121014 | 56 | 0 | 0.0 | 1.0 | 0.00 | 0.00 | 0.00 | 85 | 1019.1 |
| 20260506120511 | 56 | 0 | 0.0 | 1.0 | 0.00 | 0.00 | 0.00 | 85 | 1019.1 |
| 20260506120031 | 56 | 0 | 0.0 | 0.0 | 0.00 | 0.00 | 0.00 | 85 | 1019.1 |
| 20260506115516 | 56 | 0 | 0.0 | 3.0 | 0.00 | 0.00 | 0.00 | 85 | 1019.1 |
| 20260506115016 | 56 | 0 | 0.0 | 4.0 | 0.00 | 0.00 | 0.00 | 85 | 1019.1 |
| 20260506114528 | 56 | 161 | 0.0 | 4.0 | 0.00 | 0.00 | 0.00 | 85 | 1019.0 |
| 20260506114013 | 56 | 0 | 0.0 | 3.0 | 0.00 | 0.00 | 0.00 | 85 | 1019.0 |
| 20260506113513 | 56 | 0 | 0.0 | 3.0 | 0.00 | 0.00 | 0.00 | 85 | 1018.9 |
| 20260506113030 | 56 | 0 | 0.0 | 0.0 | 0.00 | 0.00 | 0.00 | 85 | 1018.9 |
| 20260506112513 | 56 | 0 | 0.0 | 0.0 | 0.00 | 0.00 | 0.00 | 85 | 1019.0 |
| 20260506112010 | 56 | 0 | 0.0 | 1.0 | 0.00 | 0.00 | 0.00 | 85 | 1018.9 |
| 20260506111527 | 56 | 0 | 0.0 | 4.0 | 0.00 | 0.00 | 0.00 | 85 | 1018.9 |
| 20260506111012 | 56 | 0 | 0.0 | 5.0 | 0.00 | 0.00 | 0.00 | 85 | 1018.7 |
| 20260506110512 | 56 | 188 | 2.0 | 5.0 | 0.00 | 0.00 | 0.00 | 85 | 1018.7 |
| 20260506110029 | 56 | 173 | 0.0 | 5.0 | 0.00 | 0.00 | 0.00 | 85 | 1018.7 |
| 20260506105512 | 56 | 0 | 0.0 | 5.0 | 0.00 | 0.01 | 0.00 | 85 | 1018.6 |
| 20260506105016 | 56 | 0 | 0.0 | 2.0 | 0.00 | 0.01 | 0.00 | 85 | 1018.6 |
| 20260506104529 | 56 | 0 | 0.0 | 2.0 | 0.00 | 0.01 | 0.00 | 85 | 1018.6 |
| 20260506104016 | 56 | 0 | 0.0 | 1.0 | 0.00 | 0.01 | 0.00 | 85 | 1018.5 |
| 20260506103514 | 56 | 0 | 0.0 | 0.0 | 0.00 | 0.01 | 0.00 | 85 | 1018.6 |
| 20260506103029 | 56 | 0 | 0.0 | 1.0 | 0.00 | 0.01 | 0.00 | 85 | 1018.6 |
| 20260506102514 | 56 | 0 | 0.0 | 1.0 | 0.00 | 0.01 | 0.00 | 85 | 1018.5 |
| 20260506102010 | 57 | 0 | 0.0 | 4.0 | 0.00 | 0.01 | 0.00 | 85 | 1018.3 |
| 20260506101530 | 57 | 0 | 0.0 | 4.0 | 0.00 | 0.01 | 0.00 | 85 | 1018.3 |
| 20260506101014 | 57 | 187 | 1.0 | 4.0 | 0.00 | 0.01 | 0.00 | 85 | 1018.2 |
| 20260506100517 | 57 | 178 | 2.0 | 4.0 | 0.00 | 0.01 | 0.00 | 85 | 1018.3 |
| 20260506100027 | 57 | 193 | 2.0 | 4.0 | 0.00 | 0.01 | 0.00 | 85 | 1018.3 |
| 20260506095512 | 57 | 177 | 0.0 | 3.0 | 0.00 | 0.01 | 0.00 | 85 | 1018.2 |
| 20260506095012 | 57 | 0 | 1.0 | 3.0 | 0.00 | 0.01 | 0.00 | 85 | 1018.4 |
| 20260506094530 | 57 | 216 | 0.0 | 3.0 | 0.00 | 0.01 | 0.00 | 84 | 1018.2 |
| 20260506094012 | 57 | 0 | 0.0 | 3.0 | 0.00 | 0.01 | 0.00 | 84 | 1018.3 |
| 20260506093514 | 57 | 216 | 1.0 | 3.0 | 0.00 | 0.01 | 0.00 | 84 | 1018.3 |
| 20260506093037 | 57 | 0 | 0.0 | 3.0 | 0.00 | 0.01 | 0.00 | 84 | 1018.3 |
| 20260506092513 | 57 | 0 | 0.0 | 3.0 | 0.00 | 0.01 | 0.00 | 84 | 1018.3 |
| 20260506092016 | 57 | 202 | 0.0 | 4.0 | 0.00 | 0.01 | 0.00 | 84 | 1018.3 |
| 20260506091531 | 57 | 202 | 2.0 | 4.0 | 0.00 | 0.01 | 0.00 | 84 | 1018.3 |
| 20260506091014 | 57 | 196 | 1.0 | 4.0 | 0.00 | 0.01 | 0.00 | 84 | 1018.3 |
| 20260506090514 | 57 | 192 | 2.0 | 4.0 | 0.00 | 0.01 | 0.00 | 84 | 1018.2 |
| 20260506090028 | 57 | 218 | 1.0 | 4.0 | 0.00 | 0.01 | 0.00 | 84 | 1018.2 |
| 20260506085513 | 57 | 217 | 2.0 | 4.0 | 0.00 | 0.01 | 0.00 | 83 | 1018.3 |
| 20260506085014 | 57 | 196 | 2.0 | 4.0 | 0.00 | 0.01 | 0.00 | 83 | 1018.3 |
| 20260506084534 | 57 | 215 | 2.0 | 4.0 | 0.00 | 0.01 | 0.00 | 84 | 1018.2 |
| 20260506084012 | 57 | 194 | 2.0 | 4.0 | 0.00 | 0.01 | 0.00 | 84 | 1018.3 |
| 20260506083513 | 57 | 207 | 1.0 | 4.0 | 0.00 | 0.01 | 0.00 | 84 | 1018.4 |
| 20260506083031 | 57 | 194 | 1.0 | 3.0 | 0.00 | 0.01 | 0.00 | 84 | 1018.4 |
| 20260506082513 | 57 | 198 | 1.0 | 3.0 | 0.00 | 0.01 | 0.00 | 84 | 1018.5 |
| 20260506082012 | 57 | 242 | 2.0 | 3.0 | 0.00 | 0.01 | 0.00 | 85 | 1018.4 |
| 20260506081528 | 57 | 187 | 0.0 | 2.0 | 0.00 | 0.01 | 0.00 | 85 | 1018.4 |
| 20260506081012 | 57 | 0 | 0.0 | 2.0 | 0.00 | 0.01 | 0.00 | 85 | 1018.4 |
| 20260506080511 | 57 | 0 | 0.0 | 1.0 | 0.00 | 0.01 | 0.00 | 85 | 1018.4 |
| 20260506073512 | 57 | 0 | 0.0 | 0.0 | 0.00 | 0.04 | 0.00 | 85 | 1018.1 |
| 20260506073029 | 57 | 0 | 0.0 | 0.0 | 0.00 | 0.04 | 0.00 | 84 | 1018.1 |
| 20260506072512 | 57 | 0 | 0.0 | 1.0 | 0.00 | 0.04 | 0.00 | 84 | 1018.0 |
| 20260506072014 | 57 | 0 | 0.0 | 2.0 | 0.00 | 0.04 | 0.00 | 84 | 1017.9 |
| 20260506071530 | 57 | 0 | 0.0 | 3.0 | 0.00 | 0.04 | 0.00 | 84 | 1018.0 |
| 20260506071013 | 57 | 259 | 0.0 | 3.0 | 0.00 | 0.04 | 0.00 | 84 | 1017.8 |
| 20260506070514 | 57 | 259 | 0.0 | 3.0 | 0.00 | 0.04 | 0.00 | 84 | 1017.8 |
| 20260506062512 | 57 | 269 | 3.0 | 6.0 | 0.00 | 0.07 | 0.04 | 84 | 1017.4 |
| 20260506062013 | 57 | 273 | 1.0 | 6.0 | 0.00 | 0.07 | 0.04 | 84 | 1017.4 |
| 20260506061528 | 57 | 288 | 1.0 | 6.0 | 0.00 | 0.07 | 0.04 | 84 | 1017.4 |
| 20260506061012 | 57 | 268 | 1.0 | 4.0 | 0.00 | 0.07 | 0.04 | 84 | 1017.3 |
| 20260506060513 | 57 | 306 | 2.0 | 6.0 | 0.00 | 0.07 | 0.04 | 84 | 1017.4 |
| 20260506051011 | 58 | 259 | 3.0 | 7.0 | 0.00 | 0.10 | 0.04 | 82 | 1016.8 |
| 20260506050512 | 58 | 246 | 4.0 | 7.0 | 0.00 | 0.10 | 0.04 | 81 | 1016.9 |
| 20260506045013 | 59 | 234 | 3.0 | 10.0 | 0.00 | 0.15 | 0.04 | 80 | 1016.8 |
| 20260506044538 | 59 | 262 | 5.0 | 10.0 | 0.00 | 0.15 | 0.04 | 80 | 1016.7 |
| 20260506044012 | 59 | 244 | 4.0 | 10.0 | 0.00 | 0.15 | 0.04 | 80 | 1016.6 |
| 20260506043513 | 60 | 262 | 6.0 | 10.0 | 0.00 | 0.15 | 0.04 | 79 | 1016.4 |
| 20260506043027 | 60 | 261 | 6.0 | 10.0 | 0.00 | 0.15 | 0.04 | 79 | 1016.4 |
| 20260506042512 | 61 | 252 | 6.0 | 10.0 | 0.00 | 0.15 | 0.04 | 80 | 1016.3 |
| 20260506042014 | 61 | 242 | 6.0 | 9.0 | 0.00 | 0.15 | 0.04 | 81 | 1016.2 |
| 20260506041541 | 61 | 237 | 3.0 | 6.0 | 0.00 | 0.15 | 0.04 | 81 | 1016.2 |
| 20260506041017 | 62 | 231 | 2.0 | 3.0 | 0.00 | 0.15 | 0.04 | 80 | 1016.2 |
| 20260506040516 | 62 | 219 | 1.0 | 3.0 | 0.00 | 0.15 | 0.04 | 80 | 1016.2 |
| 20260506040032 | 62 | 226 | 1.0 | 3.0 | 0.00 | 0.15 | 0.04 | 80 | 1016.2 |
| 20260506035512 | 62 | 226 | 1.0 | 2.0 | 0.00 | 0.23 | 0.04 | 80 | 1016.2 |
| 20260506035013 | 62 | 226 | 0.0 | 2.0 | 0.00 | 0.23 | 0.04 | 80 | 1016.1 |
| 20260506034531 | 62 | 226 | 0.0 | 3.0 | 0.00 | 0.23 | 0.04 | 80 | 1016.0 |
| 20260506034015 | 62 | 226 | 1.0 | 3.0 | 0.00 | 0.23 | 0.04 | 80 | 1016.0 |
| 20260506033513 | 62 | 0 | 0.0 | 3.0 | 0.00 | 0.23 | 0.04 | 80 | 1015.9 |
| 20260506033028 | 62 | 235 | 1.0 | 4.0 | 0.00 | 0.23 | 0.04 | 79 | 1015.9 |
| 20260506032514 | 62 | 203 | 1.0 | 5.0 | 0.00 | 0.23 | 0.04 | 79 | 1015.7 |
| 20260506032014 | 62 | 208 | 2.0 | 5.0 | 0.00 | 0.23 | 0.04 | 80 | 1015.6 |
| 20260506031530 | 62 | 225 | 3.0 | 5.0 | 0.00 | 0.23 | 0.04 | 79 | 1015.6 |
| 20260506031014 | 62 | 225 | 2.0 | 4.0 | 0.00 | 0.23 | 0.04 | 78 | 1015.6 |
| 20260506030515 | 62 | 209 | 2.0 | 5.0 | 0.00 | 0.23 | 0.04 | 78 | 1015.6 |
| 20260506030030 | 62 | 215 | 2.0 | 5.0 | 0.00 | 0.23 | 0.04 | 78 | 1015.5 |
| 20260506025513 | 62 | 208 | 2.0 | 6.0 | 0.00 | 0.23 | 0.04 | 78 | 1015.4 |
| 20260506025014 | 62 | 204 | 3.0 | 6.0 | 0.00 | 0.23 | 0.04 | 78 | 1015.4 |
| 20260506024528 | 63 | 207 | 4.0 | 7.0 | 0.00 | 0.23 | 0.04 | 78 | 1015.3 |
| 20260506024019 | 63 | 198 | 4.0 | 8.0 | 0.00 | 0.23 | 0.04 | 77 | 1015.1 |
| 20260506023514 | 63 | 228 | 5.0 | 9.0 | 0.00 | 0.23 | 0.04 | 76 | 1015.0 |
| 20260506023030 | 63 | 203 | 5.0 | 9.0 | 0.00 | 0.23 | 0.04 | 76 | 1014.9 |
| 20260506022513 | 63 | 209 | 4.0 | 6.0 | 0.00 | 0.23 | 0.04 | 76 | 1014.8 |
| 20260506022015 | 63 | 209 | 4.0 | 6.0 | 0.00 | 0.23 | 0.04 | 76 | 1014.9 |
| 20260506021528 | 63 | 193 | 2.0 | 6.0 | 0.00 | 0.23 | 0.04 | 75 | 1015.0 |
| 20260506021018 | 63 | 200 | 4.0 | 7.0 | 0.00 | 0.23 | 0.04 | 74 | 1015.0 |
| 20260506020517 | 64 | 200 | 4.0 | 7.0 | 0.00 | 0.23 | 0.04 | 74 | 1015.0 |
| 20260506020028 | 64 | 186 | 3.0 | 7.0 | 0.00 | 0.23 | 0.04 | 74 | 1015.0 |
| 20260506015513 | 64 | 229 | 4.0 | 8.0 | 0.00 | 0.24 | 0.04 | 74 | 1015.0 |
| 20260506015014 | 64 | 220 | 4.0 | 9.0 | 0.00 | 0.24 | 0.04 | 73 | 1014.9 |
| 20260506014530 | 65 | 224 | 5.0 | 9.0 | 0.00 | 0.24 | 0.04 | 72 | 1014.9 |
| 20260506014014 | 65 | 184 | 3.0 | 7.0 | 0.00 | 0.24 | 0.04 | 72 | 1014.8 |
| 20260506013512 | 65 | 184 | 3.0 | 6.0 | 0.00 | 0.24 | 0.04 | 73 | 1014.8 |
| 20260506013027 | 65 | 0 | 0.0 | 8.0 | 0.00 | 0.24 | 0.04 | 73 | 1014.8 |
| 20260506012512 | 65 | 0 | 1.0 | 8.0 | 0.00 | 0.24 | 0.04 | 71 | 1014.9 |
| 20260506012015 | 65 | 210 | 2.0 | 8.0 | 0.00 | 0.24 | 0.04 | 70 | 1014.8 |
| 20260506011539 | 66 | 192 | 4.0 | 8.0 | 0.00 | 0.24 | 0.04 | 70 | 1014.8 |
| 20260506011017 | 66 | 183 | 3.0 | 8.0 | 0.00 | 0.24 | 0.04 | 71 | 1014.6 |
| 20260506010514 | 65 | 213 | 2.0 | 6.0 | 0.00 | 0.24 | 0.04 | 72 | 1014.6 |
| 20260506010029 | 65 | 188 | 3.0 | 6.0 | 0.00 | 0.24 | 0.04 | 72 | 1014.6 |
| 20260506005515 | 65 | 203 | 3.0 | 6.0 | 0.00 | 0.25 | 0.04 | 75 | 1014.6 |
| 20260506005012 | 65 | 184 | 4.0 | 6.0 | 0.00 | 0.25 | 0.04 | 73 | 1014.6 |
| 20260506004540 | 65 | 255 | 3.0 | 6.0 | 0.00 | 0.25 | 0.04 | 73 | 1014.6 |
| 20260506004017 | 65 | 219 | 3.0 | 7.0 | 0.00 | 0.25 | 0.04 | 74 | 1014.6 |
| 20260506003514 | 64 | 254 | 3.0 | 7.0 | 0.00 | 0.25 | 0.04 | 74 | 1014.6 |
| 20260506003031 | 65 | 236 | 3.0 | 8.0 | 0.00 | 0.25 | 0.04 | 72 | 1014.6 |
| 20260506002516 | 65 | 215 | 4.0 | 8.0 | 0.00 | 0.25 | 0.04 | 71 | 1014.5 |
| 20260506002014 | 65 | 216 | 5.0 | 7.0 | 0.00 | 0.25 | 0.04 | 71 | 1014.5 |
| 20260506001531 | 65 | 229 | 4.0 | 8.0 | 0.00 | 0.25 | 0.04 | 71 | 1014.6 |
| 20260506001014 | 65 | 215 | 4.0 | 8.0 | 0.00 | 0.25 | 0.04 | 70 | 1014.5 |
| 20260506000516 | 65 | 229 | 5.0 | 8.0 | 0.00 | 0.25 | 0.04 | 71 | 1014.5 |
| 20260506000028 | 65 | 226 | 5.0 | 9.0 | 0.00 | 0.25 | 0.04 | 72 | 1014.4 |
| 20260505235514 | 66 | 239 | 6.0 | 10.0 | 0.00 | 0.25 | 0.04 | 71 | 1014.5 |
| 20260505235013 | 66 | 235 | 6.0 | 10.0 | 0.00 | 0.25 | 0.04 | 72 | 1014.4 |
| 20260505234531 | 66 | 246 | 5.0 | 11.0 | 0.00 | 0.25 | 0.04 | 71 | 1014.4 |
| 20260505234017 | 66 | 236 | 5.0 | 12.0 | 0.00 | 0.25 | 0.04 | 69 | 1014.4 |
| 20260505233512 | 67 | 216 | 5.0 | 12.0 | 0.00 | 0.25 | 0.04 | 69 | 1014.3 |
| 20260505233033 | 67 | 192 | 4.0 | 10.0 | 0.00 | 0.25 | 0.04 | 68 | 1014.3 |
| 20260505232517 | 68 | 189 | 6.0 | 10.0 | 0.00 | 0.25 | 0.04 | 69 | 1014.4 |
| 20260505232014 | 68 | 238 | 7.0 | 10.0 | 0.00 | 0.25 | 0.04 | 69 | 1014.4 |
| 20260505231538 | 66 | 238 | 4.0 | 8.0 | 0.00 | 0.25 | 0.04 | 69 | 1014.3 |
| 20260505231012 | 65 | 217 | 4.0 | 8.0 | 0.00 | 0.25 | 0.04 | 70 | 1014.3 |
| 20260505230515 | 65 | 188 | 3.0 | 7.0 | 0.00 | 0.25 | 0.04 | 73 | 1014.4 |
| 20260505230031 | 65 | 0 | 0.0 | 6.0 | 0.00 | 0.25 | 0.04 | 70 | 1014.4 |
| 20260505225512 | 65 | 293 | 3.0 | 6.0 | 0.00 | 0.25 | 0.04 | 72 | 1014.5 |
| 20260505225011 | 65 | 226 | 4.0 | 7.0 | 0.00 | 0.25 | 0.04 | 68 | 1014.5 |
| 20260505224528 | 66 | 0 | 1.0 | 7.0 | 0.00 | 0.25 | 0.04 | 66 | 1014.5 |
| 20260505224013 | 68 | 208 | 2.0 | 6.0 | 0.00 | 0.25 | 0.04 | 66 | 1014.5 |
| 20260505223514 | 68 | 214 | 4.0 | 6.0 | 0.00 | 0.25 | 0.04 | 68 | 1014.5 |
| 20260505223027 | 67 | 179 | 2.0 | 6.0 | 0.00 | 0.25 | 0.04 | 67 | 1014.7 |
| 20260505222513 | 67 | 0 | 2.0 | 7.0 | 0.00 | 0.25 | 0.04 | 65 | 1014.7 |
| 20260505222016 | 67 | 153 | 1.0 | 7.0 | 0.00 | 0.25 | 0.04 | 65 | 1014.9 |
| 20260505221530 | 67 | 217 | 1.0 | 6.0 | 0.00 | 0.25 | 0.04 | 72 | 1015.0 |
| 20260505221011 | 66 | 155 | 3.0 | 6.0 | 0.00 | 0.25 | 0.04 | 69 | 1014.9 |
| 20260505220512 | 65 | 215 | 1.0 | 7.0 | 0.00 | 0.25 | 0.04 | 73 | 1015.0 |
| 20260505220044 | 66 | 219 | 1.0 | 7.0 | 0.00 | 0.25 | 0.04 | 72 | 1014.9 |
| 20260505215516 | 64 | 198 | 2.0 | 7.0 | 0.00 | 0.25 | 0.04 | 73 | 1015.0 |